sat.trackr.live / text

‹ back to catalog

PELICAN-11

NORAD 69871 · 2026-156C

PAYLOAD ACTIVE UNKNOWN

§ Identity

Operator
Country
US
Launch date
2026-07-07
Launch site
AFWTR
Launch vehicle
Mass (kg)
RCS (m²)

Purposes: earth_obs

External: N2YO · Heavens-Above · Gunter

§ Orbital elements

Epoch: 2026-09-19T22:36:04.311648Z

Period
96.33 min
Inclination
97.7135°
Eccentricity
0.0004192
Mean motion
14.94926923 rev/d
Perigee alt
579.7 km
Apogee alt
585.5 km
Semi-major
6,960.7 km
B*
7.6853e-5
RAAN
162.2028°
Arg perigee
352.9338°
Mean anomaly
7.1823°
Rev number
1,094

§ Raw data

PELICAN-111 69871U 26156C   26262.94171657  .00000782  00000+0  76853-4 0  99982 69871  97.7135 162.2028 0004192 352.9338   7.1823 14.94926923 10949

JSON: /api/v1/satellites/69871 · /tle

For live sub-satellite position, see the globe view (requires WebGL).

§ Visibility from observer

Set your observer location to see the next 7 days of passes ≥ 10°. The values pass through the URL so the page stays shareable.

No JS? Fill the form by hand. The geolocation button needs JavaScript.